Location: Cannifist
(18.2333°N, 63.0167°W)
Time: 12:25:22
(UTC+00:00)

Cosmos 1933 Rocket - Pass Details

Date: 27 February 2020
Orbit: 606 x 630 km, 82.5° (Epoch: 06 April)

Event Time Altitude Azimuth Distance (km) Brightness Sun altitude
Rises 22:38:22 0° 192° (SSW) 2,898 7.3 -5.8°
Reaches altitude 10° 22:40:38 10° 196° (SSW) 1,991 6.5 -6.3°
Maximum altitude 22:44:58 58° 275° (W) 728 4.4 -7.3°
Drops below altitude 10° 22:49:17 10° 355° (N) 1,982 6.2 -8.4°
Sets 22:51:32 0° 359° (N) 2,884 6.9 -8.9°
